Voltar ao catálogo

STARLINK-36399

AtivoComunicaçõesSSO
NORAD 67665·PAYLOAD·🇺🇸 United States

Lançado Feb 2, 2026 de Vandenberg Space Force Base

Loading…

Próximas Passagens (próximas 24 horas)

TLE

AtualizadoSource: CelesTrak SupGP

Época: Sep 15, 2026, 02:35 UTC

1 67665C 26022T   26258.10812500  .00014627  00000+0  45428-3 0  2585
2 67665  97.2837 289.6881 0001093 106.9622   5.2809 15.33416072    16

Acompanhe STARLINK-36399 em tempo real com AllMySat

Download on the App Store